LEMUR-2-ALEXANDER

Last updated on Wed Jan 11 2023 00:02:06 GMT+0000 (Greenwich Mean Time)

1 43559U 18046F 23009.61189711 .06481185 12119-4 12269-2 0 9996 2 43559 51.6211 202.8665 0010495 256.1146 103.8710 16.31038202251595

Satellite not in orbit